FENGYUN 1C DEB, 46986

Orbit data source: Space-Track

FENGYUN 1C DEB, 46986 is space debris in SSO originally from a launch on Mon, 10 May 1999 UTC launched from the Taiyaun Space Center, China (TSC). Fengyun 1C debris stems from the Chinese weather satellite Fengyun-1C, which was intentionally destroyed by a Chinese anti-satellite missile in 2007. This event dramatically increased the amount of space debris, with thousands of trackable fragments posing hazards to satellites and human spaceflight. The Fengyun 1C debris cloud has become a focal point in discussions about space sustainability and the need for international regulations to prevent the creation of new debris.

Loading next visibility...
Identifier
46986, 1999-025EZL
Orbit
SSO
Country
Flag of CNCN / PRC
Related business
Manufacturer
Unknown
Mission
Spacecraft
Bus & Motor
Unknown
Mass
Unknown
Launch date (UTC)
1999-05-10 (27 years ago)
Launch vehicle
Unknown
Launch site
Taiyaun Space Center, China (TSC)
Object type
Payload
Rocket body
Debris
Shape & HBR
Unknown shape, 0.1 m
Radar Cross Section
Small (<0.1 m²)

Expand to show TLE details & history
Last TLE update: 13 hours ago

TLE from 13 hours ago
0 FENGYUN 1C DEB
1 46986U 99025EZL 26208.80513198  .00001156  00000-0  30396-3 0  9998
2 46986  98.2194 231.4320 0102789 238.2261 120.8888 14.47899714666854
Epoch: 2026-07-27T19:19Z
TLE epoch observation values (Epoch: 2026-07-27T19:19:23.403Z)
Latitude
0.00005°
Longitude
-3.89896°
Altitude
773.564 km
Speed
7.447 km/s
True Right ascension
15h 25m 43s
True Declination
0° 00' 00"
Sunlit
Object was in daylight at epoch
Visualization orbit readout
Latitude
Unknown
Longitude
Unknown
Altitude
Unknown
Speed
Unknown
Apparent Right ascension
Unknown
Apparent Declination
Unknown
Sunlit
N/A
Visualization observer readout
Local Sidereal Time
21:22:36
Azimuth
Unknown
Elevation
Unknown
Doppler factor
Unknown
Orbital elements
Apogee altitude
802.674 km
Perigee altitude
656.555 km
Semi-major axis
7,107.751 km
Eccentricity
0.01028
Inclination
98.2194°
RAAN
231.432°
Arg. of periapsis
238.2261°
True anomaly
121.89293°
Mean anomaly
120.8888°
Eccentric anomaly
121.39153°
Mean motion
3.62197 °/min
Orbital period
99.39 mins
BSTAR
0.00030396
Loading maneuver chart data...
Computing Atmospheric mass density...
Loading historical data...
Loading historical data...
Loading historical data...
Loading historical data...
Loading historical data...
Loading historical data...
Loading historical data...

Documentation

Showing up to 5 results
|